QPF
0.02 0.01 0.04 0.07 0.03 0.01 0.01 0.02 0.02 0.02 0.02 0.04 0.03 0.03 0.03 0.02 0.02 0.03 0.02 0.02 0.03 0.03 0.06 0.10 0.07 0.04 0.04 0.05 0.04 0.04 0.03 0.03 0.02 0.02 0.01 0.01 0.02 0.02 0.01 0.02 0.02 0.02 0.02 0.03 0.02 0.02 0.03 0.02 0.03
0.02 0.02 0.05 0.04 0.02 0.01 0.01 0.01 0.01 0.02 0.01 0.03 0.02 0.02 0.01 0.01 0.03 0.02 0.02 0.03 0.03 0.03 0.03 0.08 0.08 0.05 0.03 0.03 0.04 0.04 0.02 0.03 0.02 0.02 0.01 0.01 0.02 0.02 0.01 0.02 0.02 0.03 0.03 0.03 0.02 0.01 0.01 0.01 0.01
0.02 0.03 0.04 0.02 0.02 0.01 0.01 0.01 0.02 0.02 0.02 0.05 0.03 0.02 0.01 0.02 0.03 0.02 0.02 0.02 0.02 0.02 0.02 0.07 0.09 0.08 0.04 0.04 0.04 0.03 0.02 0.02 0.02 0.01 0.01 0.01 0.01 0.01 0.01 0.02 0.02 0.03 0.04 0.04 0.03 0.02 0.01 0.02 0.02
0.02 0.03 0.02 0.02 0.02 0.02 0.03 0.04 0.03 0.04 0.04 0.04 0.03 0.02 0.01 0.02 0.02 0.01 0.01 0.02 0.01 0.01 0.02 0.07 0.10 0.07 0.04 0.04 0.03 0.03 0.03 0.02 0.01 0.01 0.01 0.01 0.01 0.01 0.01 0.01 0.01 0.02 0.02 0.03 0.02 0.01 0.01 0.02 0.03
0.02 0.02 0.01 0.01 0.02 0.02 0.04 0.04 0.04 0.06 0.03 0.03 0.02 0.02 0.02 0.03 0.03 0.01 0.01 0.01 0.00 0.00 0.02 0.06 0.08 0.06 0.04 0.03 0.03 0.03 0.03 0.01 0.01 0.01 0.00 0.01 0.01 0.01 0.01 0.01 0.01 0.01 0.01 0.02 0.02 0.02 0.02 0.02 0.03
0.02 0.01 0.01 0.01 0.02 0.03 0.06 0.06 0.04 0.05 0.03 0.03 0.02 0.02 0.03 0.05 0.04 0.03 0.02 0.01 0.01 0.01 0.02 0.04 0.07 0.05 0.03 0.02 0.03 0.02 0.02 0.01 0.00 0.00 0.00 0.00 0.00 0.01 0.01 0.01 0.01 0.01 0.01 0.01 0.01 0.01 0.01 0.02 0.02
0.03 0.01 0.01 0.02 0.03 0.04 0.07 0.07 0.06 0.05 0.02 0.02 0.02 0.02 0.03 0.05 0.04 0.02 0.02 0.01 0.01 0.01 0.01 0.02 0.04 0.04 0.03 0.02 0.02 0.01 0.01 0.01 0.00 0.00 0.00 0.00 0.00 0.00 0.00 0.01 0.01 0.01 0.01 0.01 0.01 0.01 0.01 0.02 0.03
0.03 0.03 0.02 0.03 0.05 0.05 0.06 0.06 0.05 0.04 0.02 0.01 0.01 0.02 0.01 0.02 0.03 0.02 0.02 0.02 0.02 0.02 0.01 0.01 0.01 0.02 0.01 0.01 0.01 0.01 0.00 0.00 0.00 0.00 0.00 0.00 0.00 0.00 0.00 0.00 0.00 0.01 0.01 0.01 0.01 0.02 0.02 0.03 0.03
0.03 0.04 0.04 0.03 0.06 0.05 0.05 0.06 0.04 0.02 0.01 0.01 0.01 0.02 0.02 0.02 0.02 0.02 0.02 0.01 0.01 0.01 0.01 0.00 0.00 0.00 0.00 0.00 0.00 0.00 0.00 0.00 0.00 0.00 0.00 0.00 0.00 0.00 0.00 0.00 0.01 0.02 0.02 0.01 0.01 0.02 0.03 0.03 0.03
0.02 0.03 0.05 0.04 0.06 0.06 0.06 0.05 0.03 0.02 0.03 0.02 0.02 0.03 0.03 0.03 0.04 0.03 0.01 0.00 0.00 0.00 0.00 0.00 0.00 0.00 0.00 0.00 0.00 0.00 0.00 0.00 0.00 0.00 0.00 0.00 0.00 0.00 0.00 0.00 0.01 0.01 0.01 0.02 0.02 0.02 0.02 0.01 0.01
0.02 0.02 0.04 0.04 0.06 0.06 0.06 0.06 0.03 0.01 0.01 0.01 0.01 0.01 0.02 0.02 0.03 0.03 0.02 0.01 0.00 0.00 0.00 0.00 0.00 0.00 0.00 0.00 0.00 0.00 0.00 0.00 0.00 0.00 0.00 0.00 0.00 0.00 0.00 0.00 0.00 0.00 0.00 0.00 0.01 0.01 0.00 0.01 0.01
0.03 0.03 0.05 0.05 0.06 0.05 0.05 0.05 0.03 0.02 0.01 0.01 0.02 0.01 0.02 0.02 0.02 0.02 0.02 0.01 0.01 0.00 0.00 0.00 0.00 0.00 0.00 0.00 0.00 0.00 0.00 0.00 0.00 0.00 0.00 0.00 0.00 0.00 0.00 0.00 0.00 0.00 0.00 0.00 0.00 0.00 0.00 0.01 0.02
0.03 0.04 0.06 0.08 0.07 0.06 0.06 0.05 0.04 0.05 0.03 0.02 0.02 0.02 0.02 0.02 0.02 0.01 0.01 0.00 0.00 0.00 0.00 0.00 0.00 0.00 0.00 0.00 0.00 0.00 0.00 0.00 0.00 0.00 0.00 0.00 0.00 0.00 0.00 0.00 0.00 0.00 0.00 0.00 0.00 0.00 0.00 0.01 0.01
0.04 0.04 0.05 0.08 0.08 0.07 0.07 0.05 0.05 0.06 0.05 0.03 0.03 0.02 0.02 0.02 0.02 0.01 0.00 0.00 0.00 0.00 0.00 0.00 0.00 0.00 0.00 0.00 0.00 0.00 0.00 0.00 0.00 0.00 0.00 0.00 0.00 0.00 0.00 0.00 0.00 0.00 0.00 0.00 0.00 0.00 0.00 0.01 0.00
0.04 0.07 0.08 0.10 0.11 0.10 0.08 0.05 0.06 0.07 0.06 0.03 0.03 0.03 0.02 0.02 0.01 0.01 0.00 0.00 0.00 0.00 0.00 0.00 0.00 0.00 0.00 0.00 0.00 0.00 0.00 0.00 0.00 0.00 0.00 0.00 0.00 0.00 0.00 0.00 0.00 0.00 0.00 0.00 0.00 0.01 0.01 0.00 0.00
0.07 0.08 0.10 0.11 0.09 0.11 0.08 0.07 0.05 0.07 0.08 0.04 0.03 0.03 0.02 0.01 0.01 0.01 0.00 0.00 0.00 0.00 0.00 0.00 0.00 0.00 0.00 0.00 0.00 0.00 0.00 0.00 0.00 0.00 0.00 0.00 0.00 0.00 0.00 0.00 0.00 0.00 0.00 0.00 0.00 0.00 0.00 0.00 0.01
0.06 0.08 0.07 0.06 0.06 0.09 0.08 0.05 0.05 0.05 0.05 0.06 0.04 0.05 0.04 0.02 0.01 0.01 0.00 0.00 0.00 0.00 0.00 0.00 0.00 0.00 0.00 0.00 0.00 0.00 0.00 0.00 0.00 0.00 0.00 0.00 0.00 0.00 0.00 0.00 0.00 0.00 0.00 0.00 0.00 0.00 0.00 0.01 0.01
0.03 0.06 0.05 0.05 0.06 0.07 0.06 0.04 0.04 0.04 0.02 0.03 0.03 0.05 0.07 0.05 0.02 0.01 0.00 0.00 0.00 0.00 0.00 0.00 0.00 0.00 0.00 0.00 0.00 0.00 0.00 0.00 0.00 0.00 0.00 0.00 0.00 0.00 0.00 0.00 0.00 0.00 0.00 0.00 0.01 0.00 0.01 0.01 0.01
0.02 0.03 0.04 0.05 0.06 0.06 0.05 0.03 0.04 0.03 0.02 0.02 0.02 0.05 0.07 0.05 0.03 0.02 0.00 0.00 0.00 0.00 0.00 0.00 0.00 0.00 0.00 0.00 0.00 0.00 0.00 0.00 0.00 0.00 0.00 0.00 0.00 0.00 0.00 0.00 0.00 0.00 0.00 0.01 0.01 0.01 0.01 0.01 0.01
0.02 0.03 0.05 0.05 0.07 0.08 0.06 0.04 0.03 0.03 0.01 0.02 0.03 0.04 0.05 0.04 0.03 0.02 0.01 0.00 0.00 0.00 0.00 0.00 0.00 0.00 0.00 0.00 0.00 0.00 0.00 0.00 0.00 0.00 0.00 0.01 0.00 0.00 0.00 0.00 0.00 0.00 0.01 0.01 0.01 0.01 0.02 0.01 0.01
0.02 0.03 0.04 0.05 0.08 0.09 0.05 0.05 0.04 0.03 0.02 0.01 0.02 0.02 0.03 0.05 0.03 0.01 0.00 0.00 0.00 0.00 0.00 0.00 0.00 0.00 0.00 0.00 0.00 0.00 0.00 0.00 0.00 0.00 0.00 0.01 0.00 0.00 0.00 0.00 0.00 0.00 0.00 0.01 0.01 0.01 0.02 0.01 0.01
0.02 0.02 0.03 0.05 0.07 0.09 0.05 0.05 0.04 0.03 0.02 0.01 0.02 0.02 0.02 0.04 0.04 0.01 0.00 0.00 0.00 0.00 0.00 0.00 0.00 0.00 0.00 0.00 0.00 0.00 0.00 0.00 0.00 0.00 0.01 0.01 0.00 0.00 0.00 0.00 0.00 0.00 0.00 0.00 0.00 0.00 0.00 0.00 0.01
0.02 0.03 0.04 0.05 0.07 0.07 0.04 0.03 0.02 0.02 0.01 0.01 0.01 0.01 0.02 0.01 0.02 0.01 0.00 0.00 0.00 0.00 0.00 0.00 0.00 0.00 0.00 0.00 0.00 0.00 0.00 0.00 0.00 0.00 0.01 0.00 0.00 0.00 0.00 0.00 0.00 0.00 0.00 0.00 0.00 0.00 0.00 0.00 0.00
0.03 0.04 0.05 0.05 0.06 0.07 0.04 0.02 0.01 0.01 0.01 0.01 0.01 0.01 0.01 0.01 0.00 0.01 0.01 0.01 0.00 0.00 0.00 0.00 0.00 0.00 0.00 0.00 0.00 0.00 0.00 0.00 0.00 0.00 0.00 0.00 0.00 0.00 0.00 0.00 0.00 0.00 0.00 0.00 0.00 0.00 0.00 0.00 0.00
0.04 0.05 0.07 0.06 0.06 0.05 0.02 0.02 0.01 0.00 0.00 0.01 0.01 0.01 0.01 0.00 0.00 0.00 0.01 0.00 0.00 0.00 0.00 0.00 0.00 0.00 0.00 0.00 0.00 0.00 0.00 0.00 0.00 0.00 0.00 0.00 0.00 0.00 0.00 0.00 0.00 0.00 0.00 0.00 0.00 0.00 0.00 0.00 0.00
0.06 0.05 0.06 0.05 0.05 0.03 0.02 0.01 0.00 0.00 0.01 0.01 0.01 0.01 0.01 0.00 0.01 0.00 0.00 0.01 0.00 0.00 0.00 0.00 0.00 0.00 0.00 0.00 0.00 0.00 0.00 0.00 0.00 0.00 0.00 0.00 0.00 0.00 0.00 0.00 0.00 0.00 0.00 0.00 0.00 0.00 0.00 0.00 0.00
0.05 0.05 0.03 0.03 0.03 0.02 0.01 0.01 0.00 0.00 0.01 0.01 0.01 0.01 0.01 0.00 0.00 0.00 0.00 0.01 0.00 0.00 0.00 0.00 0.00 0.00 0.00 0.00 0.00 0.00 0.00 0.00 0.00 0.00 0.00 0.00 0.00 0.00 0.00 0.00 0.00 0.00 0.00 0.00 0.00 0.00 0.00 0.00 0.00
0.03 0.03 0.03 0.03 0.04 0.03 0.01 0.01 0.01 0.00 0.00 0.01 0.01 0.01 0.01 0.00 0.00 0.01 0.01 0.01 0.00 0.00 0.00 0.00 0.00 0.00 0.00 0.00 0.00 0.00 0.00 0.00 0.00 0.00 0.00 0.00 0.00 0.00 0.00 0.00 0.00 0.00 0.00 0.00 0.00 0.00 0.00 0.00 0.00
0.03 0.02 0.03 0.03 0.02 0.02 0.02 0.01 0.01 0.01 0.01 0.00 0.00 0.00 0.00 0.00 0.00 0.00 0.01 0.00 0.01 0.00 0.00 0.00 0.00 0.00 0.00 0.00 0.00 0.00 0.00 0.00 0.00 0.00 0.00 0.00 0.00 0.00 0.00 0.00 0.00 0.00 0.00 0.00 0.00 0.00 0.00 0.00 0.00
0.03 0.02 0.03 0.03 0.03 0.02 0.01 0.00 0.00 0.01 0.01 0.00 0.00 0.00 0.00 0.00 0.00 0.00 0.01 0.01 0.00 0.00 0.00 0.00 0.01 0.00 0.00 0.00 0.00 0.00 0.00 0.00 0.00 0.00 0.00 0.00 0.00 0.00 0.00 0.00 0.00 0.00 0.00 0.00 0.00 0.00 0.00 0.00 0.00
MSLP
1009.00 1009.64 1010.64 1011.86 1013.13 1014.28 1015.16 1015.72 1015.96 1015.96 1015.84 1015.72 1015.68 1015.77 1015.94 1016.13 1016.25 1016.22 1016.02 1015.65 1015.18 1014.69 1014.27 1014.00 1013.89 1013.94 1014.08 1014.26 1014.41 1014.49 1014.49 1014.43 1014.35 1014.29 1014.30 1014.37 1014.49 1014.62 1014.73 1014.78 1014.75 1014.65 1014.50 1014.34 1014.21 1014.11 1014.07 1014.06 1014.06
1009.36 1010.21 1011.36 1012.65 1013.90 1014.94 1015.65 1016.00 1016.03 1015.84 1015.58 1015.38 1015.32 1015.42 1015.64 1015.88 1016.06 1016.09 1015.93 1015.61 1015.19 1014.76 1014.41 1014.19 1014.15 1014.24 1014.41 1014.60 1014.75 1014.82 1014.80 1014.74 1014.66 1014.62 1014.64 1014.72 1014.84 1014.95 1015.03 1015.02 1014.94 1014.78 1014.59 1014.39 1014.24 1014.14 1014.09 1014.07 1014.05
1009.90 1010.91 1012.16 1013.45 1014.62 1015.50 1016.01 1016.15 1015.99 1015.67 1015.33 1015.11 1015.07 1015.22 1015.49 1015.79 1016.01 1016.07 1015.94 1015.65 1015.26 1014.88 1014.58 1014.43 1014.43 1014.56 1014.76 1014.95 1015.09 1015.13 1015.10 1015.02 1014.94 1014.90 1014.92 1015.00 1015.09 1015.18 1015.20 1015.14 1015.00 1014.79 1014.56 1014.35 1014.20 1014.10 1014.06 1014.05 1014.04
1010.61 1011.74 1013.01 1014.24 1015.27 1015.97 1016.28 1016.23 1015.93 1015.52 1015.16 1014.96 1014.98 1015.20 1015.53 1015.88 1016.12 1016.19 1016.07 1015.79 1015.43 1015.08 1014.83 1014.72 1014.77 1014.92 1015.12 1015.30 1015.41 1015.43 1015.37 1015.27 1015.17 1015.12 1015.13 1015.18 1015.25 1015.29 1015.27 1015.16 1014.97 1014.73 1014.48 1014.27 1014.13 1014.06 1014.05 1014.06 1014.06
1011.45 1012.63 1013.87 1014.99 1015.85 1016.35 1016.47 1016.27 1015.87 1015.44 1015.11 1014.98 1015.08 1015.38 1015.77 1016.15 1016.40 1016.46 1016.32 1016.04 1015.69 1015.36 1015.15 1015.08 1015.15 1015.31 1015.50 1015.66 1015.72 1015.70 1015.59 1015.46 1015.34 1015.27 1015.26 1015.30 1015.34 1015.34 1015.27 1015.12 1014.89 1014.64 1014.40 1014.21 1014.11 1014.08 1014.11 1014.15 1014.17
1012.36 1013.53 1014.68 1015.65 1016.32 1016.63 1016.59 1016.28 1015.85 1015.44 1015.18 1015.15 1015.36 1015.73 1016.17 1016.56 1016.79 1016.82 1016.66 1016.36 1016.01 1015.71 1015.52 1015.48 1015.57 1015.73 1015.89 1016.00 1016.01 1015.93 1015.79 1015.62 1015.47 1015.39 1015.37 1015.38 1015.40 1015.37 1015.27 1015.09 1014.85 1014.60 1014.37 1014.22 1014.16 1014.18 1014.25 1014.33 1014.37
1013.24 1014.35 1015.38 1016.18 1016.66 1016.80 1016.64 1016.28 1015.85 1015.51 1015.36 1015.44 1015.74 1016.18 1016.64 1017.02 1017.22 1017.21 1017.02 1016.71 1016.37 1016.09 1015.93 1015.91 1016.00 1016.15 1016.28 1016.33 1016.29 1016.16 1015.97 1015.77 1015.61 1015.52 1015.49 1015.49 1015.49 1015.45 1015.33 1015.13 1014.89 1014.64 1014.45 1014.34 1014.32 1014.39 1014.50 1014.60 1014.66
1014.01 1015.03 1015.91 1016.53 1016.85 1016.85 1016.61 1016.24 1015.87 1015.63 1015.59 1015.78 1016.16 1016.64 1017.11 1017.45 1017.61 1017.56 1017.34 1017.03 1016.71 1016.47 1016.35 1016.35 1016.45 1016.57 1016.66 1016.66 1016.56 1016.38 1016.16 1015.94 1015.78 1015.69 1015.67 1015.68 1015.67 1015.62 1015.48 1015.28 1015.04 1014.81 1014.64 1014.56 1014.59 1014.69 1014.83 1014.95 1015.01
1014.63 1015.53 1016.25 1016.71 1016.89 1016.80 1016.52 1016.18 1015.89 1015.75 1015.83 1016.11 1016.55 1017.04 1017.49 1017.79 1017.91 1017.82 1017.60 1017.30 1017.02 1016.82 1016.74 1016.77 1016.87 1016.97 1017.02 1016.98 1016.84 1016.63 1016.39 1016.17 1016.02 1015.95 1015.94 1015.96 1015.96 1015.89 1015.75 1015.54 1015.30 1015.08 1014.93 1014.88 1014.94 1015.07 1015.23 1015.36 1015.40
1015.08 1015.85 1016.42 1016.74 1016.81 1016.66 1016.39 1016.10 1015.90 1015.87 1016.04 1016.39 1016.85 1017.34 1017.74 1018.00 1018.07 1017.97 1017.75 1017.49 1017.26 1017.12 1017.09 1017.15 1017.26 1017.35 1017.37 1017.30 1017.13 1016.90 1016.65 1016.45 1016.32 1016.28 1016.29 1016.33 1016.33 1016.27 1016.12 1015.90 1015.66 1015.45 1015.31 1015.28 1015.36 1015.51 1015.68 1015.81 1015.84
1015.40 1016.03 1016.46 1016.67 1016.67 1016.50 1016.26 1016.04 1015.92 1015.98 1016.22 1016.60 1017.06 1017.51 1017.87 1018.08 1018.12 1018.01 1017.82 1017.61 1017.45 1017.37 1017.39 1017.49 1017.60 1017.68 1017.69 1017.59 1017.41 1017.18 1016.96 1016.78 1016.69 1016.67 1016.71 1016.76 1016.77 1016.70 1016.55 1016.33 1016.09 1015.88 1015.75 1015.73 1015.82 1015.98 1016.16 1016.29 1016.33
1015.65 1016.15 1016.47 1016.59 1016.54 1016.38 1016.18 1016.03 1016.00 1016.11 1016.38 1016.76 1017.18 1017.58 1017.88 1018.05 1018.07 1017.98 1017.83 1017.68 1017.58 1017.57 1017.64 1017.76 1017.89 1017.97 1017.96 1017.86 1017.69 1017.48 1017.28 1017.14 1017.08 1017.10 1017.16 1017.21 1017.23 1017.16 1017.01 1016.79 1016.55 1016.35 1016.23 1016.22 1016.32 1016.49 1016.68 1016.83 1016.87
1015.90 1016.29 1016.51 1016.57 1016.50 1016.36 1016.22 1016.13 1016.14 1016.29 1016.55 1016.90 1017.26 1017.59 1017.83 1017.96 1017.98 1017.91 1017.81 1017.72 1017.69 1017.74 1017.85 1017.99 1018.12 1018.19 1018.19 1018.10 1017.95 1017.78 1017.62 1017.52 1017.49 1017.52 1017.60 1017.66 1017.67 1017.60 1017.45 1017.24 1017.02 1016.84 1016.74 1016.75 1016.86 1017.05 1017.26 1017.42 1017.48
1016.21 1016.49 1016.64 1016.67 1016.60 1016.50 1016.40 1016.36 1016.40 1016.55 1016.77 1017.05 1017.34 1017.59 1017.77 1017.87 1017.89 1017.85 1017.81 1017.78 1017.80 1017.88 1018.01 1018.16 1018.29 1018.37 1018.38 1018.32 1018.21 1018.08 1017.96 1017.90 1017.90 1017.94 1018.01 1018.07 1018.07 1018.01 1017.87 1017.68 1017.49 1017.34 1017.27 1017.31 1017.44 1017.65 1017.88 1018.06 1018.16
1016.60 1016.80 1016.89 1016.91 1016.87 1016.81 1016.76 1016.74 1016.79 1016.89 1017.05 1017.24 1017.44 1017.62 1017.75 1017.82 1017.85 1017.85 1017.85 1017.87 1017.92 1018.02 1018.16 1018.30 1018.43 1018.52 1018.55 1018.53 1018.47 1018.39 1018.32 1018.30 1018.31 1018.35 1018.41 1018.45 1018.44 1018.37 1018.25 1018.10 1017.95 1017.84 1017.82 1017.89 1018.05 1018.28 1018.53 1018.75 1018.88
1017.05 1017.18 1017.25 1017.28 1017.28 1017.27 1017.25 1017.25 1017.27 1017.32 1017.39 1017.48 1017.58 1017.68 1017.77 1017.83 1017.88 1017.92 1017.95 1018.00 1018.08 1018.18 1018.30 1018.43 1018.55 1018.64 1018.71 1018.74 1018.74 1018.72 1018.71 1018.71 1018.73 1018.76 1018.79 1018.80 1018.78 1018.72 1018.62 1018.51 1018.41 1018.36 1018.38 1018.48 1018.67 1018.91 1019.18 1019.43 1019.61
1017.51 1017.60 1017.68 1017.75 1017.80 1017.84 1017.85 1017.84 1017.82 1017.78 1017.75 1017.73 1017.74 1017.77 1017.82 1017.89 1017.97 1018.04 1018.12 1018.19 1018.26 1018.35 1018.44 1018.55 1018.66 1018.77 1018.87 1018.96 1019.03 1019.09 1019.12 1019.15 1019.17 1019.18 1019.17 1019.15 1019.11 1019.05 1018.98 1018.91 1018.87 1018.87 1018.94 1019.07 1019.27 1019.52 1019.79 1020.06 1020.28
1017.91 1018.00 1018.12 1018.24 1018.36 1018.45 1018.49 1018.45 1018.36 1018.23 1018.08 1017.95 1017.87 1017.84 1017.88 1017.97 1018.08 1018.20 1018.31 1018.40 1018.47 1018.53 1018.60 1018.67 1018.77 1018.90 1019.05 1019.20 1019.34 1019.47 1019.56 1019.61 1019.63 1019.61 1019.57 1019.51 1019.44 1019.38 1019.34 1019.31 1019.33 1019.38 1019.48 1019.63 1019.83 1020.07 1020.33 1020.60 1020.85
1018.21 1018.34 1018.52 1018.73 1018.92 1019.05 1019.09 1019.02 1018.84 1018.59 1018.32 1018.08 1017.91 1017.84 1017.88 1018.00 1018.17 1018.35 1018.51 1018.62 1018.69 1018.72 1018.75 1018.80 1018.89 1019.03 1019.22 1019.44 1019.66 1019.85 1019.99 1020.07 1020.09 1020.04 1019.97 1019.87 1019.79 1019.73 1019.70 1019.72 1019.78 1019.87 1020.00 1020.16 1020.34 1020.54 1020.78 1021.03 1021.29
1018.39 1018.59 1018.86 1019.17 1019.43 1019.60 1019.61 1019.47 1019.18 1018.80 1018.39 1018.04 1017.80 1017.71 1017.76 1017.94 1018.18 1018.43 1018.65 1018.80 1018.87 1018.89 1018.89 1018.92 1019.00 1019.15 1019.37 1019.65 1019.93 1020.19 1020.39 1020.49 1020.51 1020.45 1020.35 1020.23 1020.13 1020.08 1020.07 1020.13 1020.22 1020.34 1020.48 1020.62 1020.77 1020.94 1021.13 1021.35 1021.61
1018.48 1018.78 1019.16 1019.55 1019.87 1020.04 1020.01 1019.77 1019.35 1018.81 1018.27 1017.80 1017.49 1017.38 1017.47 1017.71 1018.05 1018.40 1018.69 1018.90 1019.00 1019.02 1019.00 1019.00 1019.07 1019.22 1019.47 1019.79 1020.13 1020.45 1020.69 1020.83 1020.87 1020.81 1020.70 1020.57 1020.47 1020.42 1020.44 1020.52 1020.64 1020.79 1020.93 1021.05 1021.16 1021.27 1021.40 1021.58 1021.82
1018.54 1018.95 1019.43 1019.89 1020.24 1020.38 1020.27 1019.90 1019.32 1018.61 1017.91 1017.33 1016.96 1016.84 1016.97 1017.29 1017.74 1018.20 1018.60 1018.88 1019.02 1019.06 1019.04 1019.03 1019.08 1019.24 1019.50 1019.84 1020.23 1020.59 1020.88 1021.06 1021.12 1021.08 1020.98 1020.87 1020.78 1020.75 1020.80 1020.90 1021.05 1021.21 1021.35 1021.45 1021.52 1021.58 1021.65 1021.78 1021.98
1018.64 1019.14 1019.71 1020.21 1020.55 1020.63 1020.40 1019.86 1019.10 1018.21 1017.35 1016.65 1016.21 1016.09 1016.26 1016.68 1017.24 1017.83 1018.34 1018.72 1018.93 1019.01 1019.00 1018.99 1019.03 1019.18 1019.44 1019.80 1020.21 1020.61 1020.94 1021.17 1021.27 1021.27 1021.20 1021.12 1021.06 1021.06 1021.14 1021.27 1021.44 1021.62 1021.75 1021.84 1021.88 1021.90 1021.92 1021.99 1022.15
1018.81 1019.40 1020.02 1020.53 1020.82 1020.79 1020.41 1019.69 1018.72 1017.65 1016.63 1015.81 1015.31 1015.17 1015.39 1015.90 1016.57 1017.29 1017.93 1018.41 1018.71 1018.85 1018.87 1018.87 1018.91 1019.05 1019.31 1019.67 1020.09 1020.52 1020.89 1021.17 1021.33 1021.38 1021.37 1021.33 1021.31 1021.35 1021.46 1021.63 1021.82 1022.01 1022.16 1022.24 1022.27 1022.26 1022.24 1022.27 1022.38
1019.08 1019.72 1020.35 1020.83 1021.03 1020.87 1020.32 1019.40 1018.24 1016.99 1015.81 1014.89 1014.32 1014.17 1014.43 1015.01 1015.78 1016.62 1017.38 1017.98 1018.37 1018.59 1018.66 1018.68 1018.73 1018.87 1019.12 1019.48 1019.91 1020.36 1020.78 1021.10 1021.32 1021.44 1021.49 1021.51 1021.54 1021.63 1021.77 1021.96 1022.18 1022.39 1022.55 1022.65 1022.69 1022.67 1022.64 1022.63 1022.70
1019.40 1020.06 1020.67 1021.07 1021.16 1020.85 1020.13 1019.04 1017.70 1016.29 1014.99 1013.96 1013.34 1013.18 1013.45 1014.08 1014.93 1015.86 1016.73 1017.44 1017.94 1018.24 1018.38 1018.45 1018.52 1018.67 1018.92 1019.28 1019.72 1020.19 1020.63 1021.01 1021.29 1021.47 1021.59 1021.67 1021.76 1021.88 1022.05 1022.27 1022.51 1022.73 1022.92 1023.05 1023.11 1023.11 1023.09 1023.08 1023.11
1019.70 1020.35 1020.89 1021.20 1021.17 1020.72 1019.84 1018.61 1017.14 1015.61 1014.22 1013.13 1012.46 1012.27 1012.55 1013.20 1014.10 1015.09 1016.04 1016.84 1017.44 1017.82 1018.05 1018.18 1018.30 1018.47 1018.73 1019.10 1019.55 1020.03 1020.51 1020.92 1021.26 1021.51 1021.69 1021.83 1021.96 1022.12 1022.31 1022.54 1022.79 1023.04 1023.25 1023.42 1023.52 1023.56 1023.57 1023.57 1023.59
1019.89 1020.49 1020.95 1021.15 1021.00 1020.43 1019.45 1018.12 1016.58 1015.00 1013.57 1012.44 1011.75 1011.54 1011.79 1012.43 1013.33 1014.35 1015.34 1016.21 1016.88 1017.36 1017.67 1017.88 1018.06 1018.28 1018.57 1018.96 1019.41 1019.92 1020.42 1020.87 1021.26 1021.56 1021.79 1021.98 1022.15 1022.32 1022.53 1022.76 1023.02 1023.28 1023.52 1023.72 1023.87 1023.97 1024.03 1024.06 1024.09
1019.88 1020.40 1020.77 1020.87 1020.62 1019.97 1018.93 1017.58 1016.04 1014.47 1013.06 1011.94 1011.24 1011.00 1011.22 1011.81 1012.68 1013.68 1014.67 1015.57 1016.30 1016.86 1017.26 1017.56 1017.81 1018.09 1018.43 1018.84 1019.32 1019.83 1020.35 1020.84 1021.26 1021.61 1021.88 1022.11 1022.30 1022.49 1022.70 1022.93 1023.18 1023.44 1023.70 1023.94 1024.14 1024.30 1024.42 1024.50 1024.56
1019.64 1020.07 1020.32 1020.32 1020.00 1019.31 1018.28 1016.97 1015.50 1014.02 1012.67 1011.61 1010.93 1010.67 1010.83 1011.36 1012.14 1013.08 1014.03 1014.93 1015.69 1016.31 1016.79 1017.18 1017.52 1017.87 1018.26 1018.71 1019.21 1019.75 1020.29 1020.79 1021.24 1021.62 1021.93 1022.18 1022.40 1022.60 1022.81 1023.03 1023.27 1023.53 1023.80 1024.07 1024.32 1024.53 1024.71 1024.85 1024.95
Thickness
5794 5795 5793 5782 5761 5743 5739 5746 5753 5753 5754 5761 5764 5761 5753 5747 5743 5738 5754 5762 5762 5761 5760 5759 5757 5756 5754 5753 5751 5749 5748 5746 5745 5744 5743 5741 5740 5739 5739 5738 5737 5737 5737 5736 5737 5738 5739 5739 5740
5794 5793 5784 5769 5746 5729 5736 5748 5751 5755 5760 5764 5764 5760 5752 5748 5753 5753 5756 5760 5761 5760 5758 5757 5756 5754 5753 5751 5749 5748 5746 5744 5743 5742 5740 5739 5738 5737 5736 5736 5735 5734 5734 5734 5734 5735 5736 5737 5738
5793 5790 5772 5755 5741 5733 5739 5750 5753 5759 5765 5764 5757 5756 5751 5748 5753 5755 5758 5760 5759 5758 5757 5755 5754 5752 5750 5749 5747 5746 5744 5742 5741 5740 5739 5737 5736 5735 5734 5733 5733 5732 5732 5732 5732 5732 5733 5734 5735
5785 5775 5763 5747 5739 5743 5748 5752 5757 5758 5761 5762 5756 5749 5751 5757 5758 5759 5760 5759 5758 5756 5755 5753 5751 5750 5748 5747 5745 5744 5742 5741 5739 5738 5737 5736 5734 5733 5732 5731 5730 5729 5729 5729 5729 5730 5731 5732 5733
5778 5762 5746 5736 5739 5747 5753 5758 5760 5755 5753 5754 5753 5744 5744 5755 5760 5760 5759 5758 5755 5754 5753 5751 5750 5748 5747 5745 5743 5742 5740 5739 5738 5736 5735 5734 5732 5731 5730 5729 5728 5727 5727 5727 5727 5728 5728 5729 5731
5761 5752 5732 5726 5735 5745 5751 5757 5756 5752 5750 5752 5750 5743 5742 5753 5756 5756 5757 5755 5754 5753 5751 5750 5748 5747 5745 5743 5742 5740 5739 5738 5736 5735 5733 5732 5731 5729 5728 5727 5726 5725 5725 5725 5725 5725 5726 5727 5728
5752 5741 5730 5730 5732 5739 5749 5756 5752 5748 5747 5750 5752 5740 5741 5749 5754 5755 5754 5753 5752 5751 5749 5748 5747 5745 5744 5742 5740 5739 5738 5736 5735 5734 5732 5731 5729 5728 5726 5725 5724 5724 5723 5723 5723 5724 5724 5725 5726
5755 5740 5730 5728 5730 5735 5748 5753 5753 5750 5747 5756 5754 5740 5739 5748 5753 5752 5751 5750 5749 5748 5747 5746 5745 5743 5742 5740 5739 5737 5736 5735 5734 5732 5731 5729 5728 5726 5725 5723 5723 5722 5721 5721 5721 5721 5722 5722 5723
5756 5731 5722 5727 5730 5735 5746 5747 5751 5756 5751 5751 5752 5750 5751 5753 5751 5748 5746 5745 5745 5746 5745 5744 5743 5742 5740 5739 5738 5736 5735 5733 5732 5731 5729 5727 5726 5724 5722 5721 5721 5720 5719 5719 5718 5719 5719 5719 5720
5743 5724 5728 5737 5738 5739 5743 5744 5747 5746 5742 5742 5744 5749 5751 5749 5747 5743 5742 5741 5741 5742 5743 5743 5742 5741 5739 5738 5736 5735 5733 5732 5731 5729 5727 5726 5724 5722 5720 5719 5718 5717 5717 5716 5715 5715 5715 5715 5716
5739 5728 5734 5739 5743 5743 5741 5741 5746 5740 5735 5739 5740 5742 5744 5744 5743 5741 5741 5741 5741 5742 5742 5742 5741 5740 5738 5736 5735 5733 5732 5731 5729 5728 5726 5724 5722 5720 5719 5718 5716 5715 5714 5713 5712 5712 5712 5712 5713
5733 5732 5736 5737 5742 5741 5739 5740 5739 5739 5740 5746 5746 5745 5743 5740 5739 5739 5739 5740 5741 5741 5741 5741 5740 5739 5737 5735 5734 5732 5731 5729 5728 5726 5725 5722 5720 5718 5716 5715 5714 5712 5712 5710 5710 5709 5709 5709 5710
5728 5729 5734 5736 5737 5737 5738 5735 5735 5734 5742 5744 5744 5742 5739 5738 5738 5739 5741 5741 5740 5740 5740 5740 5740 5738 5736 5734 5733 5731 5730 5728 5727 5725 5723 5721 5719 5717 5715 5713 5712 5711 5710 5709 5708 5707 5707 5706 5707
5726 5727 5727 5729 5731 5733 5730 5730 5731 5730 5738 5738 5738 5737 5737 5737 5737 5737 5738 5738 5739 5739 5739 5739 5738 5736 5735 5733 5731 5730 5729 5727 5726 5724 5722 5721 5718 5716 5714 5712 5711 5709 5708 5707 5706 5705 5704 5704 5704
5726 5719 5718 5721 5724 5725 5727 5718 5722 5729 5733 5731 5733 5734 5735 5736 5737 5737 5738 5739 5738 5738 5738 5737 5736 5735 5733 5732 5730 5729 5727 5726 5725 5723 5721 5720 5718 5716 5714 5712 5710 5708 5707 5706 5705 5704 5703 5702 5701
5716 5706 5700 5712 5719 5722 5718 5704 5719 5727 5727 5724 5727 5729 5731 5734 5736 5737 5739 5738 5738 5737 5736 5736 5736 5733 5732 5730 5729 5727 5726 5725 5723 5722 5720 5719 5717 5715 5713 5711 5709 5707 5706 5705 5704 5702 5700 5698 5698
5697 5689 5692 5702 5715 5717 5712 5705 5717 5725 5725 5722 5723 5725 5727 5730 5733 5735 5738 5738 5737 5736 5735 5734 5733 5732 5730 5728 5727 5726 5725 5724 5722 5721 5719 5718 5716 5714 5713 5710 5708 5707 5706 5704 5703 5700 5698 5696 5695
5685 5686 5689 5694 5707 5710 5706 5706 5714 5720 5722 5720 5721 5722 5723 5725 5730 5734 5736 5737 5736 5735 5734 5732 5731 5729 5728 5726 5725 5724 5723 5722 5721 5719 5718 5716 5715 5714 5712 5710 5708 5707 5705 5702 5701 5698 5697 5695 5694
5694 5689 5687 5694 5707 5705 5701 5704 5710 5717 5718 5718 5718 5719 5721 5724 5730 5732 5734 5734 5733 5732 5731 5730 5729 5727 5726 5724 5722 5720 5718 5718 5718 5717 5716 5716 5715 5713 5712 5709 5708 5706 5704 5701 5700 5698 5696 5693 5693
5692 5686 5685 5693 5704 5703 5698 5701 5710 5715 5716 5719 5719 5719 5721 5723 5726 5728 5730 5730 5730 5730 5729 5728 5727 5726 5726 5724 5722 5720 5718 5717 5716 5715 5715 5714 5714 5713 5711 5709 5707 5705 5704 5701 5700 5698 5695 5692 5691
5688 5685 5686 5689 5696 5700 5696 5693 5703 5712 5717 5720 5722 5722 5723 5724 5724 5725 5726 5727 5727 5727 5727 5728 5726 5726 5725 5723 5722 5719 5717 5715 5714 5713 5712 5712 5712 5712 5710 5708 5707 5705 5703 5700 5699 5698 5696 5691 5689
5681 5693 5694 5691 5683 5678 5688 5675 5695 5705 5710 5715 5719 5720 5722 5724 5725 5726 5726 5726 5726 5727 5727 5726 5725 5725 5724 5723 5721 5718 5714 5711 5711 5710 5710 5711 5711 5710 5709 5708 5707 5705 5703 5701 5700 5698 5696 5693 5689
5687 5696 5692 5688 5681 5676 5681 5677 5687 5701 5703 5712 5719 5722 5723 5725 5726 5726 5727 5727 5728 5727 5726 5725 5724 5723 5723 5722 5721 5718 5714 5712 5710 5710 5709 5709 5709 5709 5708 5707 5706 5704 5702 5701 5699 5697 5696 5693 5690
5693 5689 5683 5677 5673 5665 5676 5675 5682 5695 5709 5716 5721 5724 5726 5727 5727 5727 5728 5728 5727 5726 5725 5724 5722 5722 5721 5720 5719 5717 5714 5712 5710 5709 5708 5707 5707 5707 5707 5706 5705 5703 5702 5700 5698 5697 5695 5692 5690
5687 5673 5659 5656 5654 5659 5676 5676 5687 5712 5721 5725 5726 5727 5729 5729 5728 5727 5726 5725 5724 5724 5723 5723 5721 5720 5719 5719 5718 5717 5715 5712 5710 5709 5707 5706 5705 5704 5704 5705 5704 5702 5701 5699 5698 5696 5693 5691 5689
5679 5674 5657 5649 5650 5658 5672 5674 5698 5722 5728 5731 5732 5732 5731 5729 5729 5729 5729 5727 5726 5725 5723 5722 5721 5720 5719 5718 5717 5716 5715 5712 5710 5709 5707 5706 5704 5704 5704 5703 5702 5701 5700 5698 5697 5695 5692 5690 5688
5675 5670 5673 5661 5660 5658 5666 5682 5705 5723 5725 5728 5729 5730 5730 5731 5731 5730 5729 5728 5727 5726 5725 5724 5722 5720 5718 5718 5717 5715 5714 5712 5710 5709 5707 5706 5705 5704 5703 5702 5701 5700 5698 5697 5695 5693 5690 5689 5687
5684 5676 5665 5659 5652 5652 5665 5676 5687 5709 5717 5723 5726 5728 5730 5732 5731 5731 5730 5729 5728 5727 5725 5724 5723 5721 5719 5717 5716 5715 5713 5712 5710 5709 5707 5705 5704 5703 5702 5701 5699 5698 5696 5695 5693 5691 5689 5688 5685
5676 5673 5667 5659 5659 5653 5655 5675 5709 5714 5721 5724 5727 5731 5732 5732 5732 5731 5731 5730 5728 5726 5724 5723 5721 5720 5718 5717 5715 5714 5712 5711 5709 5708 5706 5705 5703 5702 5700 5699 5697 5696 5694 5693 5691 5689 5687 5685 5683
5684 5678 5670 5660 5658 5658 5658 5677 5722 5722 5725 5727 5729 5731 5733 5734 5733 5732 5730 5728 5726 5725 5723 5722 5721 5719 5718 5717 5715 5713 5711 5709 5707 5706 5705 5704 5702 5700 5699 5697 5695 5694 5692 5691 5689 5687 5685 5683 5681